This demonstration page uses our WeatherBlox Daily Observations layout. Learn more.

Left ArrowRight Arrow

Hourly Observations for March 24, 2017

Temp ( °F °C ) Dew Point ( °F °C ) Humidity (%) Winds ( mph kmh ) Pressure ( in mb ) Visibility ( mi km ) Precip ( " mm )
12:53 am 00:53 Clear 54 12.2 33 0.6 45 45 N N/A 30.21 1023 10 16.0934 N/A
1:53 am 01:53 Mostly Clear 51 10.6 35 1.7 54 54 SSE 3 6 30.18 1022 10 16.0934 N/A
2:53 am 02:53 Clear 54 12.2 35 1.7 49 49 SSE 3 6 30.15 1021 10 16.0934 N/A
3:53 am 03:53 Clear 55 12.8 38 3.3 53 53 VRB 5 7 30.14 1021 10 16.0934 N/A
4:53 am 04:53 Clear 55 12.8 40 4.4 57 57 VRB 3 6 30.14 1021 10 16.0934 N/A
5:53 am 05:53 Clear 54 12.2 41 5 62 62 VRB 5 7 30.14 1021 10 16.0934 N/A
6:53 am 06:53 Clear 54 12.2 41 5 62 62 SSE 3 6 30.17 1022 10 16.0934 N/A
7:53 am 07:53 Sunny 53 11.7 41 5 64 64 SSE 5 7 30.18 1022 10 16.0934 N/A
8:53 am 08:53 Sunny 55 12.8 43 6.1 64 64 S 5 7 30.19 1022 10 16.0934 N/A
9:53 am 09:53 Sunny 59 15 45 7.2 60 60 S 9 15 30.2 1023 10 16.0934 N/A
10:53 am 10:53 Mostly Sunny 63 17.2 48 8.9 58 58 SW 9 15 30.22 1024 10 16.0934 N/A
11:53 am 11:53 Mostly Sunny 64 17.8 49 9.4 58 58 SSW 12 19 30.23 1024 10 16.0934 N/A
12:53 pm 12:53 Sunny 71 21.7 51 10.6 49 49 SSW 9 15 30.19 1022 10 16.0934 N/A
1:53 pm 13:53 Mostly Sunny 73 22.8 53 11.7 50 50 S 12 19 30.16 1022 10 16.0934 N/A
2:53 pm 14:53 Mostly Cloudy 74 23.3 53 11.7 48 48 SW 9 15 30.14 1021 10 16.0934 N/A
3:53 pm 15:53 Cloudy 75 23.9 54 12.2 48 48 S 9 15 30.12 1020 10 16.0934 N/A
4:53 pm 16:53 Cloudy 74 23.3 54 12.2 50 50 SSW 14 22 30.1 1019 10 16.0934 N/A
5:53 pm 17:53 Mostly Sunny 76 24.4 55 12.8 48 48 SSW 8 13 30.08 1019 10 16.0934 N/A
6:53 pm 18:53 Sunny 74 23.3 54 12.2 50 50 SSW 9 15 30.08 1019 10 16.0934 N/A
7:53 pm 19:53 Mostly Sunny 72 22.2 54 12.2 53 53 SSW 8 13 30.1 1019 10 16.0934 N/A
8:53 pm 20:53 Clear 70 21.1 54 12.2 57 57 S 9 15 30.11 1020 10 16.0934 N/A
9:53 pm 21:53 Clear 70 21.1 53 11.7 55 55 SSW 7 11 30.11 1020 10 16.0934 N/A
10:53 pm 22:53 Clear 67 19.4 53 11.7 61 61 SW 6 9 30.13 1020 10 16.0934 N/A
11:53 pm 23:53 Cloudy 66 18.9 53 11.7 63 63 S 3 6 30.14 1021 10 16.0934 N/A

Powered by AerisWeather